Weather History for KCNY - October, 2011

Change the Weather History Date:

Wednesday, October 19, 2011

  Actual Average Record
Temperature  
Mean Temperature 55 °F 52 °F  
Max Temperature 69 °F 67 °F 87 °F (1992)
Min Temperature 42 °F 38 °F 25 °F (1976)
Degree Days  
Heating Degree Days 10 13  
Month to date heating degree days 169  
Since 1 July heating degree days 227  
Cooling Degree Days 0 0  
Month to date cooling degree days 4  
Year to date cooling degree days 1288  
Growing Degree Days 5 (Base 50)    
Moisture  
Dew Point 18 °F    
Average Humidity 27    
Maximum Humidity 40    
Minimum Humidity 14    
Precipitation  
Precipitation 0.00 in 0.03 in 1.40 in (1949)
Month to date precipitation 0.79  
Year to date precipitation 7.13  
Sea Level Pressure  
Sea Level Pressure 30.03 in    
Wind  
Wind Speed 4 mph (West)    
Max Wind Speed 12 mph    
Max Gust Speed -    
Visibility 10 miles    
Events      
T = Trace of Precipitation, MM = Missing Value Source: NWS Daily Summary

Daily Weather History Graph

Daily Weather History Graph

Search for Another Location

Airport or City:

Trip Planner

Search our weather history database for the weather conditions in past years. The results will help you decide how hot, cold, wet, or windy it might be!

Date:

Astronomy

Oct. 19, 2011 Rise Set
Actual Time 7:32 AM MDT 6:35 PM MDT
Civil Twilight 7:05 AM MDT 7:02 PM MDT
Nautical Twilight 6:34 AM MDT 7:33 PM MDT
Astronomical Twilight 6:03 AM MDT 8:03 PM MDT
Moon No Moon Rise 2:03 PM MDT (10/19)
Length of Visible Light 11h 57m
Length of Day
11h 03m
Waning Gibbous, 54% of the Moon is Illuminated
Oct 19
Waning Gibbous
Oct 19
Last Quarter
Oct 26
New
Nov 2
First Quarter
Nov 10
Full

Hourly Weather History & Observations

Time (MDT) Temp. Windchill Dew Point Humidity Pressure Visibility Wind Dir Wind Speed Gust Speed Precip Events Conditions
12:53 AM 45.0 °F 41.8 °F 21.0 °F 39% 30.15 in 10.0 mi West 5.8 mph - N/A   Clear
1:53 AM 43.0 °F 41.3 °F 19.0 °F 38% 30.14 in 10.0 mi WSW 3.5 mph - N/A   Clear
2:53 AM 48.0 °F - 19.0 °F 32% 30.12 in 10.0 mi Calm Calm - N/A   Clear
3:53 AM 46.0 °F 44.8 °F 19.0 °F 34% 30.12 in 10.0 mi SW 3.5 mph - N/A   Clear
5:53 AM 44.1 °F 42.5 °F 18.0 °F 35% 30.12 in 10.0 mi South 3.5 mph - N/A   Clear
6:53 AM 42.1 °F 40.2 °F 19.0 °F 40% 30.13 in 10.0 mi SE 3.5 mph - N/A   Clear
7:53 AM 43.0 °F 37.7 °F 19.9 °F 40% 30.14 in 10.0 mi SSE 9.2 mph - N/A   Clear
8:53 AM 50.0 °F - 19.9 °F 31% 30.13 in 10.0 mi ENE 4.6 mph - N/A   Clear
9:53 AM 52.0 °F - 19.9 °F 28% 30.12 in 10.0 mi South 3.5 mph - N/A   Clear
10:53 AM 57.0 °F - 19.0 °F 23% 30.10 in 10.0 mi East 11.5 mph - N/A   Clear
11:53 AM 59.0 °F - 19.0 °F 21% 30.09 in 10.0 mi ENE 6.9 mph - N/A   Clear
12:53 PM 61.0 °F - 19.0 °F 20% 30.04 in 10.0 mi Variable 3.5 mph - N/A   Clear
1:53 PM 64.9 °F - 17.1 °F 16% 30.00 in 10.0 mi Calm Calm - N/A   Clear
2:53 PM 66.0 °F - 17.1 °F 15% 29.94 in 10.0 mi Variable 3.5 mph - N/A   Clear
3:53 PM 66.0 °F - 17.1 °F 15% 29.92 in 10.0 mi Calm Calm - N/A   Clear
4:53 PM 68.0 °F - 17.1 °F 14% 29.91 in 10.0 mi NW 6.9 mph - N/A   Clear
5:53 PM 66.0 °F - 17.1 °F 15% 29.91 in 10.0 mi NNW 4.6 mph - N/A   Clear
6:53 PM 59.0 °F - 17.1 °F 20% 29.92 in 10.0 mi NW 4.6 mph - N/A   Clear
7:53 PM 55.0 °F - 17.1 °F 23% 29.94 in 10.0 mi NW 9.2 mph - N/A   Clear
8:53 PM 50.0 °F - 16.0 °F 26% 29.95 in 10.0 mi West 6.9 mph - N/A   Clear
9:53 PM 50.0 °F - 17.1 °F 27% 29.96 in 10.0 mi Calm Calm - N/A   Clear
10:53 PM 50.0 °F - 18.0 °F 28% 29.96 in 10.0 mi West 3.5 mph - N/A   Clear
11:53 PM 46.0 °F 44.8 °F 18.0 °F 33% 29.97 in 10.0 mi NE 3.5 mph - N/A   Clear